Zurück zum Katalog

FENGYUN 1C DEB

AktivSSO
NORAD 38119·DEBRIS·🇨🇳 China

Gestartet May 10, 1999 von Taiyuan Satellite Launch Center

Loading…

Nächste Überflüge (nächste 24 Stunden)

TLE

AktuellSource: Space-Track

Epoche: Sep 14, 2026, 09:59 UTC

1 38119U 99025EPQ 26257.41632956  .00007987  00000-0  29552-2 0  9991
2 38119  98.5886 326.7868 0223415 155.7905 205.3968 14.19691989579154

Verfolge FENGYUN 1C DEB in Echtzeit mit AllMySat

Download on the App Store